Time,TemperatureF,DewpointF,PressureIn,WindDirection,WindDirectionDegrees,WindSpeedMPH,WindSpeedGustMPH,Humidity,HourlyPrecipIn,Conditions,Clouds,dailyrainin,SoftwareType,DateUTC
2014-12-20 00:02:00,29.8,24.7,30.27,East,79,0.0,1.0,81,0.00,,,0.00,VWS V15.00,2014-12-20 05:02:00,
2014-12-20 00:07:00,29.8,24.7,30.28,East,84,1.0,3.0,81,0.00,,,0.00,VWS V15.00,2014-12-20 05:07:00,
2014-12-20 00:12:00,29.8,24.7,30.27,ESE,111,0.0,5.0,81,0.00,,,0.00,VWS V15.00,2014-12-20 05:12:00,
2014-12-20 00:17:00,29.8,24.7,30.28,ENE,65,0.0,5.0,81,0.00,,,0.00,VWS V15.00,2014-12-20 05:17:00,
2014-12-20 00:22:00,29.8,24.7,30.28,ENE,65,0.0,1.0,81,0.00,,,0.00,VWS V15.00,2014-12-20 05:22:00,
2014-12-20 00:27:00,29.8,24.7,30.28,East,95,0.0,4.0,81,0.00,,,0.00,VWS V15.00,2014-12-20 05:27:00,
2014-12-20 00:32:00,29.8,24.7,30.29,ESE,123,0.0,6.0,81,0.00,,,0.00,VWS V15.00,2014-12-20 05:32:00,
2014-12-20 00:37:00,29.8,24.7,30.29,ESE,123,1.0,6.0,81,0.00,,,0.00,VWS V15.00,2014-12-20 05:37:00,
2014-12-20 00:42:00,29.8,24.7,30.29,ESE,123,0.0,2.0,81,0.00,,,0.00,VWS V15.00,2014-12-20 05:42:00,
2014-12-20 00:47:00,29.8,24.7,30.30,ESE,123,2.0,5.0,81,0.00,,,0.00,VWS V15.00,2014-12-20 05:47:00,
2014-12-20 00:52:00,29.8,24.7,30.29,SE,132,0.0,5.0,81,0.00,,,0.00,VWS V15.00,2014-12-20 05:52:00,
2014-12-20 00:57:00,29.7,24.6,30.29,ESE,119,2.0,5.0,81,0.00,,,0.00,VWS V15.00,2014-12-20 05:57:00,
2014-12-20 01:02:00,29.7,24.6,30.29,ESE,119,0.0,2.0,81,0.00,,,0.00,VWS V15.00,2014-12-20 06:02:00,
2014-12-20 01:07:00,29.7,24.6,30.29,SE,142,2.0,5.0,81,0.00,,,0.00,VWS V15.00,2014-12-20 06:07:00,
2014-12-20 01:12:00,29.7,24.6,30.29,ESE,123,5.0,5.0,81,0.00,,,0.00,VWS V15.00,2014-12-20 06:12:00,
2014-12-20 01:17:00,29.7,24.6,30.29,SE,126,2.0,5.0,81,0.00,,,0.00,VWS V15.00,2014-12-20 06:17:00,
2014-12-20 01:22:00,29.7,24.6,30.29,ESE,123,0.0,4.0,81,0.00,,,0.00,VWS V15.00,2014-12-20 06:22:00,
2014-12-20 01:27:00,29.7,24.6,30.29,ESE,116,2.0,4.0,81,0.00,,,0.00,VWS V15.00,2014-12-20 06:27:00,
2014-12-20 01:32:00,29.7,24.6,30.29,ESE,117,0.0,5.0,81,0.00,,,0.00,VWS V15.00,2014-12-20 06:32:00,
2014-12-20 01:37:00,29.7,24.6,30.28,East,80,0.0,5.0,81,0.00,,,0.00,VWS V15.00,2014-12-20 06:37:00,
2014-12-20 01:42:00,29.6,24.5,30.29,East,81,0.0,2.0,81,0.00,,,0.00,VWS V15.00,2014-12-20 06:42:00,
2014-12-20 01:47:00,29.6,24.5,30.29,East,81,2.0,2.0,81,0.00,,,0.00,VWS V15.00,2014-12-20 06:47:00,
2014-12-20 01:52:00,29.6,24.5,30.29,ESE,110,2.0,6.0,81,0.00,,,0.00,VWS V15.00,2014-12-20 06:52:00,
2014-12-20 01:57:00,29.6,24.5,30.30,ESE,110,0.0,6.0,81,0.00,,,0.00,VWS V15.00,2014-12-20 06:57:00,
2014-12-20 02:02:00,29.6,24.5,30.30,ESE,110,0.0,2.0,81,0.00,,,0.00,VWS V15.00,2014-12-20 07:02:00,
2014-12-20 02:07:00,29.6,24.5,30.30,ESE,110,0.0,2.0,81,0.00,,,0.00,VWS V15.00,2014-12-20 07:07:00,
2014-12-20 02:12:00,29.6,24.5,30.30,ESE,110,0.0,0.0,81,0.00,,,0.00,VWS V15.00,2014-12-20 07:12:00,
2014-12-20 02:17:00,29.6,24.5,30.30,ESE,110,0.0,0.0,81,0.00,,,0.00,VWS V15.00,2014-12-20 07:17:00,
2014-12-20 02:22:00,29.6,24.8,30.30,ESE,110,0.0,0.0,82,0.00,,,0.00,VWS V15.00,2014-12-20 07:22:00,
2014-12-20 02:27:00,29.6,24.5,30.30,ESE,110,0.0,1.0,81,0.00,,,0.00,VWS V15.00,2014-12-20 07:27:00,
2014-12-20 02:32:00,29.6,24.8,30.30,ESE,110,0.0,0.0,82,0.00,,,0.00,VWS V15.00,2014-12-20 07:32:00,
2014-12-20 02:37:00,29.6,24.8,30.30,ESE,110,0.0,0.0,82,0.00,,,0.00,VWS V15.00,2014-12-20 07:37:00,
2014-12-20 02:42:00,29.6,24.8,30.30,ESE,110,0.0,1.0,82,0.00,,,0.00,VWS V15.00,2014-12-20 07:42:00,
2014-12-20 02:47:00,29.6,24.8,30.30,ESE,110,0.0,1.0,82,0.00,,,0.00,VWS V15.00,2014-12-20 07:47:00,
2014-12-20 02:52:00,29.6,24.8,30.30,ESE,110,0.0,1.0,82,0.00,,,0.00,VWS V15.00,2014-12-20 07:52:00,
2014-12-20 02:57:00,29.7,24.9,30.30,ESE,110,0.0,1.0,82,0.00,,,0.00,VWS V15.00,2014-12-20 07:57:00,
2014-12-20 03:02:00,29.7,24.9,30.30,ESE,105,2.0,2.0,82,0.00,,,0.00,VWS V15.00,2014-12-20 08:02:00,
2014-12-20 03:07:00,29.6,24.8,30.30,East,85,0.0,3.0,82,0.00,,,0.00,VWS V15.00,2014-12-20 08:07:00,
2014-12-20 03:12:00,29.7,24.9,30.30,East,94,0.0,2.0,82,0.00,,,0.00,VWS V15.00,2014-12-20 08:12:00,
2014-12-20 03:17:00,29.7,24.9,30.30,East,95,0.0,2.0,82,0.00,,,0.00,VWS V15.00,2014-12-20 08:17:00,
2014-12-20 03:22:00,29.7,24.9,30.30,East,95,0.0,0.0,82,0.00,,,0.00,VWS V15.00,2014-12-20 08:22:00,
2014-12-20 03:27:00,29.6,24.8,30.30,East,95,0.0,1.0,82,0.00,,,0.00,VWS V15.00,2014-12-20 08:27:00,
2014-12-20 03:32:00,29.7,24.9,30.30,East,95,0.0,0.0,82,0.00,,,0.00,VWS V15.00,2014-12-20 08:32:00,
2014-12-20 03:37:00,29.6,24.8,30.30,East,95,0.0,0.0,82,0.00,,,0.00,VWS V15.00,2014-12-20 08:37:00,
2014-12-20 03:42:00,29.6,24.8,30.30,East,95,0.0,0.0,82,0.00,,,0.00,VWS V15.00,2014-12-20 08:42:00,
2014-12-20 03:47:00,29.6,24.8,30.30,East,95,0.0,0.0,82,0.00,,,0.00,VWS V15.00,2014-12-20 08:47:00,
2014-12-20 03:52:00,29.6,24.8,30.30,East,95,0.0,0.0,82,0.00,,,0.00,VWS V15.00,2014-12-20 08:52:00,
2014-12-20 03:57:00,29.6,24.8,30.30,East,95,0.0,0.0,82,0.00,,,0.00,VWS V15.00,2014-12-20 08:57:00,
2014-12-20 04:02:00,29.6,24.8,30.29,East,95,0.0,0.0,82,0.00,,,0.00,VWS V15.00,2014-12-20 09:02:00,
2014-12-20 04:07:00,29.6,24.8,30.29,East,95,0.0,0.0,82,0.00,,,0.00,VWS V15.00,2014-12-20 09:07:00,
2014-12-20 04:12:00,29.6,24.8,30.29,East,95,0.0,0.0,82,0.00,,,0.00,VWS V15.00,2014-12-20 09:12:00,
2014-12-20 04:17:00,29.5,25.0,30.29,East,95,0.0,0.0,83,0.00,,,0.00,VWS V15.00,2014-12-20 09:17:00,
2014-12-20 04:22:00,29.6,25.1,30.28,East,95,0.0,0.0,83,0.00,,,0.00,VWS V15.00,2014-12-20 09:22:00,
2014-12-20 04:27:00,29.5,25.0,30.28,East,95,0.0,2.0,83,0.00,,,0.00,VWS V15.00,2014-12-20 09:27:00,
2014-12-20 04:32:00,29.5,25.0,30.28,East,95,0.0,0.0,83,0.00,,,0.00,VWS V15.00,2014-12-20 09:32:00,
2014-12-20 04:37:00,29.4,24.9,30.28,East,95,0.0,0.0,83,0.00,,,0.00,VWS V15.00,2014-12-20 09:37:00,
2014-12-20 04:42:00,29.5,25.0,30.28,East,95,0.0,1.0,83,0.00,,,0.00,VWS V15.00,2014-12-20 09:42:00,
2014-12-20 04:47:00,29.5,24.7,30.28,East,95,2.0,2.0,82,0.00,,,0.00,VWS V15.00,2014-12-20 09:47:00,
2014-12-20 04:52:00,29.5,24.7,30.28,East,95,0.0,1.0,82,0.00,,,0.00,VWS V15.00,2014-12-20 09:52:00,
2014-12-20 04:57:00,29.5,24.7,30.28,East,95,0.0,1.0,82,0.00,,,0.00,VWS V15.00,2014-12-20 09:57:00,
2014-12-20 05:02:00,29.5,25.0,30.28,East,95,0.0,1.0,83,0.00,,,0.00,VWS V15.00,2014-12-20 10:02:00,
2014-12-20 05:07:00,29.5,24.7,30.28,East,95,0.0,1.0,82,0.00,,,0.00,VWS V15.00,2014-12-20 10:07:00,
2014-12-20 05:12:00,29.5,24.7,30.28,East,95,0.0,0.0,82,0.00,,,0.00,VWS V15.00,2014-12-20 10:12:00,
2014-12-20 05:17:00,29.5,24.7,30.28,East,95,0.0,1.0,82,0.00,,,0.00,VWS V15.00,2014-12-20 10:17:00,
2014-12-20 05:22:00,29.5,24.7,30.28,East,95,0.0,0.0,82,0.00,,,0.00,VWS V15.00,2014-12-20 10:22:00,
2014-12-20 05:27:00,29.5,24.7,30.28,East,95,0.0,1.0,82,0.00,,,0.00,VWS V15.00,2014-12-20 10:27:00,
2014-12-20 05:32:00,29.5,24.7,30.28,East,95,0.0,2.0,82,0.00,,,0.00,VWS V15.00,2014-12-20 10:32:00,
2014-12-20 05:37:00,29.5,24.7,30.28,East,95,0.0,2.0,82,0.00,,,0.00,VWS V15.00,2014-12-20 10:37:00,
2014-12-20 05:42:00,29.5,24.7,30.28,East,95,0.0,1.0,82,0.00,,,0.00,VWS V15.00,2014-12-20 10:42:00,
2014-12-20 05:47:00,29.4,24.6,30.28,East,95,1.0,2.0,82,0.00,,,0.00,VWS V15.00,2014-12-20 10:47:00,
2014-12-20 05:52:00,29.4,24.3,30.28,East,95,2.0,2.0,81,0.00,,,0.00,VWS V15.00,2014-12-20 10:52:00,
2014-12-20 05:57:00,29.4,24.3,30.29,East,95,0.0,2.0,81,0.00,,,0.00,VWS V15.00,2014-12-20 10:57:00,
2014-12-20 06:02:00,29.5,24.4,30.29,East,95,0.0,0.0,81,0.00,,,0.00,VWS V15.00,2014-12-20 11:02:00,
2014-12-20 06:07:00,29.5,24.4,30.29,East,95,0.0,2.0,81,0.00,,,0.00,VWS V15.00,2014-12-20 11:07:00,
2014-12-20 06:12:00,29.4,24.3,30.29,East,95,0.0,0.0,81,0.00,,,0.00,VWS V15.00,2014-12-20 11:12:00,
2014-12-20 06:17:00,29.4,24.3,30.29,East,95,0.0,0.0,81,0.00,,,0.00,VWS V15.00,2014-12-20 11:17:00,
2014-12-20 06:22:00,29.5,24.7,30.29,East,95,0.0,0.0,82,0.00,,,0.00,VWS V15.00,2014-12-20 11:22:00,
2014-12-20 06:27:00,29.5,24.7,30.29,East,95,0.0,1.0,82,0.00,,,0.00,VWS V15.00,2014-12-20 11:27:00,
2014-12-20 06:32:00,29.5,24.7,30.29,East,95,0.0,0.0,82,0.00,,,0.00,VWS V15.00,2014-12-20 11:32:00,
2014-12-20 06:37:00,29.4,24.6,30.29,East,95,0.0,0.0,82,0.00,,,0.00,VWS V15.00,2014-12-20 11:37:00,
2014-12-20 06:42:00,29.5,24.7,30.30,East,95,0.0,0.0,82,0.00,,,0.00,VWS V15.00,2014-12-20 11:42:00,
2014-12-20 06:47:00,29.5,24.7,30.30,East,95,0.0,0.0,82,0.00,,,0.00,VWS V15.00,2014-12-20 11:47:00,
2014-12-20 06:52:00,29.4,24.6,30.30,East,95,0.0,0.0,82,0.00,,,0.00,VWS V15.00,2014-12-20 11:52:00,
2014-12-20 06:57:00,29.4,24.6,30.30,East,95,0.0,0.0,82,0.00,,,0.00,VWS V15.00,2014-12-20 11:57:00,
2014-12-20 07:02:00,29.4,24.6,30.30,East,95,0.0,0.0,82,0.00,,,0.00,VWS V15.00,2014-12-20 12:02:00,
2014-12-20 07:07:00,29.4,24.6,30.30,East,95,0.0,0.0,82,0.00,,,0.00,VWS V15.00,2014-12-20 12:07:00,
2014-12-20 07:12:00,29.4,24.9,30.31,East,95,0.0,0.0,83,0.00,,,0.00,VWS V15.00,2014-12-20 12:12:00,
2014-12-20 07:17:00,29.4,24.9,30.31,East,95,0.0,0.0,83,0.00,,,0.00,VWS V15.00,2014-12-20 12:17:00,
2014-12-20 07:22:00,29.4,25.2,30.30,East,95,0.0,0.0,84,0.00,,,0.00,VWS V15.00,2014-12-20 12:22:00,
2014-12-20 07:27:00,29.3,25.1,30.30,East,95,0.0,0.0,84,0.00,,,0.00,VWS V15.00,2014-12-20 12:27:00,
2014-12-20 07:32:00,29.2,25.3,30.30,East,95,0.0,0.0,85,0.00,,,0.00,VWS V15.00,2014-12-20 12:32:00,
2014-12-20 07:37:00,29.1,25.4,30.30,East,95,0.0,0.0,86,0.00,,,0.00,VWS V15.00,2014-12-20 12:37:00,
2014-12-20 07:42:00,29.0,25.4,30.30,East,95,0.0,0.0,86,0.00,,,0.00,VWS V15.00,2014-12-20 12:42:00,
2014-12-20 07:47:00,28.9,25.5,30.30,East,95,0.0,0.0,87,0.00,,,0.00,VWS V15.00,2014-12-20 12:47:00,
2014-12-20 07:52:00,28.8,25.7,30.31,East,95,0.0,0.0,88,0.00,,,0.00,VWS V15.00,2014-12-20 12:52:00,
2014-12-20 07:57:00,28.7,25.6,30.31,East,95,0.0,0.0,88,0.00,,,0.00,VWS V15.00,2014-12-20 12:57:00,
2014-12-20 08:02:00,28.7,25.6,30.31,East,95,0.0,0.0,88,0.00,,,0.00,VWS V15.00,2014-12-20 13:02:00,
2014-12-20 08:07:00,28.7,25.6,30.31,East,95,0.0,0.0,88,0.00,,,0.00,VWS V15.00,2014-12-20 13:07:00,
2014-12-20 08:12:00,28.7,25.9,30.31,East,95,0.0,0.0,89,0.00,,,0.00,VWS V15.00,2014-12-20 13:12:00,
2014-12-20 08:17:00,28.7,25.9,30.32,East,95,0.0,0.0,89,0.00,,,0.00,VWS V15.00,2014-12-20 13:17:00,
2014-12-20 08:21:00,28.7,25.9,30.32,East,95,0.0,0.0,89,0.00,,,0.00,VWS V15.00,2014-12-20 13:21:00,
2014-12-20 08:26:00,28.7,25.9,30.32,East,95,0.0,0.0,89,0.00,,,0.00,VWS V15.00,2014-12-20 13:26:00,
2014-12-20 08:31:00,28.7,25.9,30.32,East,95,0.0,0.0,89,0.00,,,0.00,VWS V15.00,2014-12-20 13:31:00,
2014-12-20 08:36:00,28.8,26.2,30.32,East,95,0.0,0.0,90,0.00,,,0.00,VWS V15.00,2014-12-20 13:36:00,
2014-12-20 08:41:00,28.7,26.1,30.32,East,95,0.0,0.0,90,0.00,,,0.00,VWS V15.00,2014-12-20 13:41:00,
2014-12-20 08:46:00,28.8,26.2,30.33,East,95,0.0,0.0,90,0.00,,,0.00,VWS V15.00,2014-12-20 13:46:00,
2014-12-20 08:51:00,28.8,26.2,30.33,East,95,0.0,1.0,90,0.00,,,0.00,VWS V15.00,2014-12-20 13:51:00,
2014-12-20 08:56:00,28.7,26.1,30.33,East,95,0.0,1.0,90,0.00,,,0.00,VWS V15.00,2014-12-20 13:56:00,
2014-12-20 09:01:00,28.8,26.2,30.33,East,95,0.0,0.0,90,0.00,,,0.00,VWS V15.00,2014-12-20 14:01:00,
2014-12-20 09:06:00,28.8,26.2,30.32,East,95,0.0,0.0,90,0.00,,,0.00,VWS V15.00,2014-12-20 14:06:00,
2014-12-20 09:11:00,28.8,26.2,30.32,East,95,0.0,0.0,90,0.00,,,0.00,VWS V15.00,2014-12-20 14:11:00,
2014-12-20 09:16:00,28.8,26.2,30.32,East,95,0.0,1.0,90,0.00,,,0.00,VWS V15.00,2014-12-20 14:16:00,
2014-12-20 09:21:00,28.8,26.5,30.32,East,95,0.0,0.0,91,0.00,,,0.00,VWS V15.00,2014-12-20 14:21:00,
2014-12-20 09:26:00,28.8,26.5,30.32,East,95,0.0,0.0,91,0.00,,,0.00,VWS V15.00,2014-12-20 14:26:00,
2014-12-20 09:31:00,28.9,26.6,30.32,East,95,0.0,0.0,91,0.00,,,0.00,VWS V15.00,2014-12-20 14:31:00,
2014-12-20 09:36:00,29.0,26.7,30.32,East,95,0.0,0.0,91,0.00,,,0.00,VWS V15.00,2014-12-20 14:36:00,
2014-12-20 09:41:00,29.1,26.8,30.32,East,95,0.0,2.0,91,0.00,,,0.00,VWS V15.00,2014-12-20 14:41:00,
2014-12-20 09:46:00,29.2,26.6,30.32,East,95,0.0,2.0,90,0.00,,,0.00,VWS V15.00,2014-12-20 14:46:00,
2014-12-20 09:51:00,29.3,26.7,30.32,East,95,0.0,0.0,90,0.00,,,0.00,VWS V15.00,2014-12-20 14:51:00,
2014-12-20 09:56:00,29.4,26.8,30.32,East,95,0.0,1.0,90,0.00,,,0.00,VWS V15.00,2014-12-20 14:56:00,
2014-12-20 10:01:00,29.6,27.0,30.32,East,95,0.0,0.0,90,0.00,,,0.00,VWS V15.00,2014-12-20 15:01:00,
2014-12-20 10:06:00,29.6,27.0,30.32,East,95,0.0,0.0,90,0.00,,,0.00,VWS V15.00,2014-12-20 15:06:00,
2014-12-20 10:11:00,29.7,26.9,30.32,East,95,0.0,0.0,89,0.00,,,0.00,VWS V15.00,2014-12-20 15:11:00,
2014-12-20 10:16:00,29.8,27.0,30.32,East,95,0.0,0.0,89,0.00,,,0.00,VWS V15.00,2014-12-20 15:16:00,
2014-12-20 10:21:00,29.8,27.0,30.33,East,95,0.0,0.0,89,0.00,,,0.00,VWS V15.00,2014-12-20 15:21:00,
2014-12-20 10:26:00,29.8,27.0,30.33,East,95,0.0,2.0,89,0.00,,,0.00,VWS V15.00,2014-12-20 15:26:00,
2014-12-20 10:31:00,29.8,26.7,30.33,East,95,0.0,0.0,88,0.00,,,0.00,VWS V15.00,2014-12-20 15:31:00,
2014-12-20 10:36:00,29.9,26.8,30.33,East,95,0.0,1.0,88,0.00,,,0.00,VWS V15.00,2014-12-20 15:36:00,
2014-12-20 10:41:00,29.9,26.8,30.33,East,95,0.0,0.0,88,0.00,,,0.00,VWS V15.00,2014-12-20 15:41:00,
2014-12-20 10:46:00,30.0,27.2,30.32,East,95,0.0,0.0,89,0.00,,,0.00,VWS V15.00,2014-12-20 15:46:00,
2014-12-20 10:51:00,30.1,27.3,30.32,East,95,0.0,0.0,89,0.00,,,0.00,VWS V15.00,2014-12-20 15:51:00,
2014-12-20 10:56:00,30.3,27.5,30.31,East,95,0.0,1.0,89,0.00,,,0.00,VWS V15.00,2014-12-20 15:56:00,
2014-12-20 11:01:00,30.3,27.5,30.31,East,95,0.0,0.0,89,0.00,,,0.00,VWS V15.00,2014-12-20 16:01:00,
2014-12-20 11:06:00,30.4,27.5,30.31,East,95,0.0,1.0,89,0.00,,,0.00,VWS V15.00,2014-12-20 16:06:00,
2014-12-20 11:11:00,30.5,27.6,30.31,East,95,0.0,0.0,89,0.00,,,0.00,VWS V15.00,2014-12-20 16:11:00,
2014-12-20 11:16:00,30.6,27.5,30.31,East,95,0.0,0.0,88,0.00,,,0.00,VWS V15.00,2014-12-20 16:16:00,
2014-12-20 11:21:00,30.8,27.7,30.31,East,95,0.0,1.0,88,0.00,,,0.00,VWS V15.00,2014-12-20 16:21:00,
2014-12-20 11:26:00,30.8,27.7,30.32,East,95,0.0,1.0,88,0.00,,,0.00,VWS V15.00,2014-12-20 16:26:00,
2014-12-20 11:31:00,30.8,27.4,30.32,East,95,0.0,0.0,87,0.00,,,0.00,VWS V15.00,2014-12-20 16:31:00,
2014-12-20 11:36:00,30.8,27.4,30.32,East,95,0.0,1.0,87,0.00,,,0.00,VWS V15.00,2014-12-20 16:36:00,
2014-12-20 11:41:00,30.9,27.5,30.31,East,95,0.0,0.0,87,0.00,,,0.00,VWS V15.00,2014-12-20 16:41:00,
2014-12-20 11:46:00,31.0,27.6,30.31,East,95,0.0,0.0,87,0.00,,,0.00,VWS V15.00,2014-12-20 16:46:00,
2014-12-20 11:51:00,31.0,27.6,30.32,East,95,0.0,0.0,87,0.00,,,0.00,VWS V15.00,2014-12-20 16:51:00,
2014-12-20 11:56:00,31.0,27.6,30.31,East,95,0.0,0.0,87,0.00,,,0.00,VWS V15.00,2014-12-20 16:56:00,
2014-12-20 12:01:00,31.0,27.3,30.31,East,95,0.0,0.0,86,0.00,,,0.00,VWS V15.00,2014-12-20 17:01:00,
2014-12-20 12:06:00,31.0,27.6,30.31,East,95,0.0,0.0,87,0.00,,,0.00,VWS V15.00,2014-12-20 17:06:00,
2014-12-20 12:11:00,31.0,27.3,30.31,East,95,0.0,0.0,86,0.00,,,0.00,VWS V15.00,2014-12-20 17:11:00,
2014-12-20 12:16:00,31.0,27.3,30.31,East,95,0.0,0.0,86,0.00,,,0.00,VWS V15.00,2014-12-20 17:16:00,
2014-12-20 12:21:00,30.9,27.2,30.31,East,95,0.0,0.0,86,0.00,,,0.00,VWS V15.00,2014-12-20 17:21:00,
2014-12-20 12:26:00,31.0,27.3,30.30,East,95,0.0,0.0,86,0.00,,,0.00,VWS V15.00,2014-12-20 17:26:00,
2014-12-20 12:31:00,31.0,27.3,30.30,East,95,0.0,0.0,86,0.00,,,0.00,VWS V15.00,2014-12-20 17:31:00,
2014-12-20 12:36:00,31.0,27.3,30.30,East,95,0.0,0.0,86,0.00,,,0.00,VWS V15.00,2014-12-20 17:36:00,
2014-12-20 12:41:00,30.9,27.2,30.30,East,95,0.0,0.0,86,0.00,,,0.00,VWS V15.00,2014-12-20 17:41:00,
2014-12-20 12:46:00,30.9,27.2,30.30,East,95,0.0,0.0,86,0.00,,,0.00,VWS V15.00,2014-12-20 17:46:00,
2014-12-20 12:51:00,30.9,27.2,30.30,East,95,0.0,0.0,86,0.00,,,0.00,VWS V15.00,2014-12-20 17:51:00,
2014-12-20 12:56:00,31.0,27.3,30.29,East,95,0.0,0.0,86,0.00,,,0.00,VWS V15.00,2014-12-20 17:56:00,
2014-12-20 13:01:00,30.9,27.2,30.29,East,95,0.0,0.0,86,0.00,,,0.00,VWS V15.00,2014-12-20 18:01:00,
2014-12-20 13:06:00,30.9,28.9,30.29,East,95,0.0,0.0,92,0.00,,,0.00,VWS V15.00,2014-12-20 18:06:00,
2014-12-20 13:11:00,31.0,27.3,30.29,East,95,0.0,0.0,86,0.00,,,0.00,VWS V15.00,2014-12-20 18:11:00,
2014-12-20 13:16:00,31.1,27.4,30.29,East,95,0.0,0.0,86,0.00,,,0.00,VWS V15.00,2014-12-20 18:16:00,
2014-12-20 13:21:00,31.2,27.5,30.29,East,95,0.0,0.0,86,0.00,,,0.00,VWS V15.00,2014-12-20 18:21:00,
2014-12-20 13:26:00,31.3,27.6,30.29,East,95,0.0,0.0,86,0.00,,,0.00,VWS V15.00,2014-12-20 18:26:00,